YS1AHL-29 Weather Reports


Display with metric or nautical units.
time (UTC)temp
F
wind
direction
speed
MPH
gust
MPH
rain 1hr
in
rain 24hr
in
rain mn
in
humidity
%
barometer
mb
20260510204404 66 180 8.0 7.0 0.00 0.00 0.00 65 1017.0
20260510203504 66 180 8.0 7.0 0.00 0.00 0.00 65 1017.0
20260510203403 66 180 8.0 7.0 0.00 0.00 0.00 65 1017.0
20260510202503 65 158 6.0 5.0 0.00 0.00 0.00 67 1017.0
20260510202403 65 158 6.0 5.0 0.00 0.00 0.00 67 1017.0
20260510201502 66 225 4.0 7.0 0.00 0.00 0.00 67 1017.0
20260510201402 66 225 4.0 7.0 0.00 0.00 0.00 67 1017.0
20260510200502 66 135 5.0 11.0 0.00 0.00 0.00 66 1017.0
20260510200402 66 135 5.0 11.0 0.00 0.00 0.00 66 1017.0
20260510195501 66 180 5.0 5.0 0.00 0.00 0.00 67 1017.0
20260510195401 66 180 5.0 5.0 0.00 0.00 0.00 67 1017.0
20260510194501 64 220 12.0 0.0 0.00 0.00 0.00 69 1017.0
20260510194400 64 220 12.0 0.0 0.00 0.00 0.00 69 1017.0
20260510193500 65 68 7.0 8.0 0.00 0.00 0.00 65 1017.0
20260510193400 65 68 7.0 8.0 0.00 0.00 0.00 65 1017.0
20260510192500 65 68 7.0 8.0 0.00 0.00 0.00 65 1017.0
20260510192400 65 68 7.0 8.0 0.00 0.00 0.00 65 1017.0
20260510191459 65 165 5.0 14.0 0.00 0.00 0.00 65 1016.0
20260510191359 65 165 5.0 14.0 0.00 0.00 0.00 65 1016.0
20260510190459 64 158 8.0 8.0 0.00 0.00 0.00 67 1017.0
20260510190403 64 158 8.0 8.0 0.00 0.00 0.00 67 1017.0
20260510185458 64 203 7.0 10.0 0.00 0.00 0.00 66 1017.0
20260510185358 64 203 7.0 10.0 0.00 0.00 0.00 66 1017.0
20260510184457 64 150 5.0 0.0 0.00 0.00 0.00 66 1017.0
20260510184357 64 150 5.0 0.0 0.00 0.00 0.00 66 1017.0
20260510183356 63 135 5.0 8.0 0.00 0.00 0.00 67 1017.0
20260510182456 63 150 5.0 0.0 0.00 0.00 0.00 68 1016.0
20260510181454 64 45 5.0 7.0 0.00 0.00 0.00 68 1016.0
20260510181354 64 45 5.0 7.0 0.00 0.00 0.00 68 1016.0
20260510180453 63 110 8.0 0.0 0.00 0.00 0.00 69 1016.0
20260510180353 63 110 8.0 0.0 0.00 0.00 0.00 69 1016.0
20260510175453 63 110 8.0 0.0 0.00 0.00 0.00 70 1017.0
20260510175353 63 110 8.0 0.0 0.00 0.00 0.00 70 1017.0
20260510174451 63 110 8.0 0.0 0.00 0.00 0.00 70 1017.0
20260510174351 63 110 8.0 0.0 0.00 0.00 0.00 70 1017.0
20260510173451 62 110 8.0 0.0 0.00 0.00 0.00 72 1017.0
20260510173350 62 110 8.0 0.0 0.00 0.00 0.00 72 1017.0
20260510172450 62 110 8.0 0.0 0.00 0.00 0.00 72 1016.0
20260510172350 62 110 8.0 0.0 0.00 0.00 0.00 72 1016.0
20260510171449 61 110 8.0 0.0 0.00 0.00 0.00 72 1016.0
20260510171349 61 110 8.0 0.0 0.00 0.00 0.00 72 1016.0
20260510170449 60 110 11.0 0.0 0.00 0.00 0.00 76 1016.0
20260510170348 60 110 11.0 0.0 0.00 0.00 0.00 76 1016.0
20260510165448 60 110 11.0 0.0 0.00 0.00 0.00 77 1016.0
20260510165347 60 110 11.0 0.0 0.00 0.00 0.00 77 1016.0
20260510164447 60 110 11.0 0.0 0.00 0.00 0.00 77 1017.0
20260510164347 60 110 11.0 0.0 0.00 0.00 0.00 77 1017.0
20260510163447 59 110 11.0 0.0 0.00 0.00 0.00 79 1016.0
20260510163347 59 110 11.0 0.0 0.00 0.00 0.00 79 1016.0
20260510162446 59 203 5.0 7.0 0.00 0.00 0.00 77 1016.0
20260510162346 59 203 5.0 7.0 0.00 0.00 0.00 77 1016.0
20260510161445 59 180 4.0 5.0 0.00 0.00 0.00 78 1016.0
20260510161345 59 180 4.0 5.0 0.00 0.00 0.00 78 1016.0
20260510160445 59 113 5.0 5.0 0.00 0.00 0.00 78 1016.0
20260510160344 59 113 5.0 5.0 0.00 0.00 0.00 78 1016.0
20260510155444 58 100 13.0 0.0 0.00 0.00 0.00 79 1016.0
20260510155344 58 100 13.0 0.0 0.00 0.00 0.00 79 1016.0
20260510154442 57 100 13.0 0.0 0.00 0.00 0.00 81 1016.0
20260510153442 57 100 13.0 0.0 0.00 0.00 0.00 81 1016.0
20260510153341 57 100 13.0 0.0 0.00 0.00 0.00 81 1016.0
20260510152441 56 100 13.0 0.0 0.00 0.00 0.00 82 1016.0
20260510152341 56 100 13.0 0.0 0.00 0.00 0.00 82 1016.0
20260510151440 56 100 13.0 0.0 0.00 0.00 0.00 82 1016.0
20260510151340 56 100 13.0 0.0 0.00 0.00 0.00 82 1016.0
20260510150439 56 90 11.0 0.0 0.00 0.00 0.00 83 1016.0
20260510150339 56 90 11.0 0.0 0.00 0.00 0.00 83 1016.0
20260510145439 55 90 11.0 0.0 0.00 0.00 0.00 83 1016.0
20260510145339 55 90 11.0 0.0 0.00 0.00 0.00 83 1016.0
20260510144439 55 90 11.0 0.0 0.00 0.00 0.00 85 1016.0
20260510144339 55 90 11.0 0.0 0.00 0.00 0.00 85 1016.0
20260510143438 55 90 11.0 0.0 0.00 0.00 0.00 85 1016.0
20260510143338 55 90 11.0 0.0 0.00 0.00 0.00 85 1016.0
20260510142437 54 90 11.0 0.0 0.00 0.00 0.00 86 1015.0
20260510142337 54 90 11.0 0.0 0.00 0.00 0.00 86 1015.0
20260510141437 54 120 11.0 0.0 0.00 0.00 0.00 85 1015.0
20260510141337 54 120 11.0 0.0 0.00 0.00 0.00 85 1015.0
20260510140436 54 110 11.0 0.0 0.00 0.00 0.00 86 1016.0
20260510140336 54 110 11.0 0.0 0.00 0.00 0.00 86 1016.0
20260510135436 54 110 11.0 0.0 0.00 0.00 0.00 86 1016.0
20260510135335 54 110 11.0 0.0 0.00 0.00 0.00 86 1016.0
20260510134435 54 110 11.0 0.0 0.00 0.00 0.00 86 1016.0
20260510134335 54 110 11.0 0.0 0.00 0.00 0.00 86 1016.0
20260510133434 53 110 11.0 0.0 0.00 0.00 0.00 88 1016.0
20260510133334 53 110 11.0 0.0 0.00 0.00 0.00 88 1016.0
20260510132434 53 110 11.0 0.0 0.00 0.00 0.00 89 1015.0
20260510132334 53 110 11.0 0.0 0.00 0.00 0.00 89 1015.0
20260510131433 53 110 11.0 0.0 0.00 0.00 0.00 88 1015.0
20260510131333 53 110 11.0 0.0 0.00 0.00 0.00 88 1015.0
20260510130433 53 130 12.0 0.0 0.00 0.00 0.00 87 1015.0
20260510130332 53 130 12.0 0.0 0.00 0.00 0.00 87 1015.0
20260510125432 53 130 12.0 0.0 0.00 0.00 0.00 87 1015.0
20260510125332 53 130 12.0 0.0 0.00 0.00 0.00 87 1015.0
20260510124432 53 130 12.0 0.0 0.00 0.00 0.00 87 1016.0
20260510124331 53 130 12.0 0.0 0.00 0.00 0.00 87 1016.0
20260510123431 53 130 12.0 0.0 0.00 0.00 0.00 87 1016.0
20260510123330 53 130 12.0 0.0 0.00 0.00 0.00 87 1016.0
20260510122430 53 130 12.0 0.0 0.00 0.00 0.00 85 1015.0
20260510122330 53 130 12.0 0.0 0.00 0.00 0.00 85 1015.0
20260510121430 53 130 12.0 0.0 0.00 0.00 0.00 85 1015.0
20260510121329 53 130 12.0 0.0 0.00 0.00 0.00 85 1015.0
20260510120429 53 150 12.0 0.0 0.00 0.00 0.00 85 1016.0
20260510120329 53 150 12.0 0.0 0.00 0.00 0.00 85 1016.0
20260510115428 53 150 12.0 0.0 0.00 0.00 0.00 85 1016.0
20260510115328 53 150 12.0 0.0 0.00 0.00 0.00 85 1016.0
20260510114428 53 150 12.0 0.0 0.00 0.00 0.00 84 1016.0
20260510114327 53 150 12.0 0.0 0.00 0.00 0.00 84 1016.0
20260510113427 53 150 12.0 0.0 0.00 0.00 0.00 84 1016.0
20260510113327 53 150 12.0 0.0 0.00 0.00 0.00 84 1016.0
20260510112427 53 150 12.0 0.0 0.00 0.00 0.00 84 1015.0
20260510112327 53 150 12.0 0.0 0.00 0.00 0.00 84 1015.0
20260510111426 54 130 9.0 0.0 0.00 0.00 0.00 81 1015.0
20260510111326 54 130 9.0 0.0 0.00 0.00 0.00 81 1015.0
20260510110425 54 130 9.0 0.0 0.00 0.00 0.00 81 1015.0
20260510110325 54 130 9.0 0.0 0.00 0.00 0.00 81 1015.0
20260510105425 54 130 9.0 0.0 0.00 0.00 0.00 80 1016.0
20260510105325 54 130 9.0 0.0 0.00 0.00 0.00 80 1016.0
20260510104424 54 130 9.0 0.0 0.00 0.00 0.00 81 1016.0
20260510104324 54 130 9.0 0.0 0.00 0.00 0.00 81 1016.0
20260510103424 54 130 9.0 0.0 0.00 0.00 0.00 80 1016.0
20260510103324 54 130 9.0 0.0 0.00 0.00 0.00 80 1016.0
20260510102424 54 130 9.0 0.0 0.00 0.00 0.00 80 1015.0
20260510102324 54 130 9.0 0.0 0.00 0.00 0.00 80 1015.0
20260510101423 54 130 9.0 0.0 0.00 0.00 0.00 80 1015.0
20260510101323 54 130 9.0 0.0 0.00 0.00 0.00 80 1015.0
20260510100422 54 110 10.0 0.0 0.00 0.00 0.00 75 1016.0
20260510100322 54 110 10.0 0.0 0.00 0.00 0.00 75 1016.0
20260510095422 54 110 10.0 0.0 0.00 0.00 0.00 76 1016.0
20260510095321 54 110 10.0 0.0 0.00 0.00 0.00 76 1016.0
20260510094421 54 110 10.0 0.0 0.00 0.00 0.00 76 1016.0
20260510094321 54 110 10.0 0.0 0.00 0.00 0.00 76 1016.0
20260510093420 54 110 10.0 0.0 0.00 0.00 0.00 76 1016.0
20260510093320 54 110 10.0 0.0 0.00 0.00 0.00 76 1016.0
20260510092420 54 110 10.0 0.0 0.00 0.00 0.00 76 1015.0
20260510092320 54 110 10.0 0.0 0.00 0.00 0.00 76 1015.0
20260510091420 54 110 10.0 0.0 0.00 0.00 0.00 75 1015.0
20260510091319 54 110 10.0 0.0 0.00 0.00 0.00 75 1015.0
20260510090419 54 0 2.0 0.0 0.00 0.00 0.00 76 1015.0
20260510090318 54 0 2.0 0.0 0.00 0.00 0.00 76 1015.0
20260510085418 55 0 2.0 0.0 0.00 0.00 0.00 76 1016.0
20260510085318 55 0 2.0 0.0 0.00 0.00 0.00 76 1016.0
20260510084418 55 0 2.0 0.0 0.00 0.00 0.00 76 1016.0
20260510084317 55 0 2.0 0.0 0.00 0.00 0.00 76 1016.0
20260510083417 55 0 2.0 0.0 0.00 0.00 0.00 76 1015.0
20260510083317 55 0 2.0 0.0 0.00 0.00 0.00 76 1015.0
20260510082416 55 0 2.0 0.0 0.00 0.00 0.00 76 1015.0
20260510082316 55 0 2.0 0.0 0.00 0.00 0.00 76 1015.0
20260510081416 55 353 1.0 3.0 0.00 0.00 0.00 77 1015.0
20260510081315 55 353 1.0 3.0 0.00 0.00 0.00 77 1015.0
20260510080415 56 130 5.0 0.0 0.00 0.00 0.00 71 1015.0
20260510080315 56 130 5.0 0.0 0.00 0.00 0.00 71 1015.0
20260510075414 56 130 5.0 0.0 0.00 0.00 0.00 71 1015.0
20260510075314 56 130 5.0 0.0 0.00 0.00 0.00 71 1015.0
20260510074414 57 130 5.0 0.0 0.00 0.00 0.00 71 1015.0
20260510074314 57 130 5.0 0.0 0.00 0.00 0.00 71 1015.0
20260510073413 57 130 5.0 0.0 0.00 0.00 0.00 71 1015.0
20260510073313 57 130 5.0 0.0 0.00 0.00 0.00 71 1015.0
20260510072413 57 130 5.0 0.0 0.00 0.00 0.00 71 1015.0
20260510072313 57 130 5.0 0.0 0.00 0.00 0.00 71 1015.0
20260510071412 57 130 5.0 0.0 0.00 0.00 0.00 71 1015.0
20260510071312 57 130 5.0 0.0 0.00 0.00 0.00 71 1015.0
20260510070412 57 150 3.0 0.0 0.00 0.00 0.00 71 1015.0
20260510070311 57 150 3.0 0.0 0.00 0.00 0.00 71 1015.0
20260510065411 57 150 3.0 0.0 0.00 0.00 0.00 70 1015.0
20260510065311 57 150 3.0 0.0 0.00 0.00 0.00 70 1015.0
20260510064410 57 150 3.0 0.0 0.00 0.00 0.00 70 1015.0
20260510064310 57 150 3.0 0.0 0.00 0.00 0.00 70 1015.0
20260510063409 57 150 3.0 0.0 0.00 0.00 0.00 70 1015.0
20260510063309 57 150 3.0 0.0 0.00 0.00 0.00 70 1015.0
20260510062409 57 150 3.0 0.0 0.00 0.00 0.00 69 1015.0
20260510062309 57 150 3.0 0.0 0.00 0.00 0.00 69 1015.0
20260510061409 57 121 4.0 4.0 0.00 0.00 0.00 70 1015.0
20260510061308 57 121 4.0 4.0 0.00 0.00 0.00 70 1015.0
20260510060408 57 100 3.0 0.0 0.00 0.00 0.00 68 1015.0
20260510060308 57 100 3.0 0.0 0.00 0.00 0.00 68 1015.0
20260510055407 58 100 3.0 0.0 0.00 0.00 0.00 68 1015.0
20260510055307 58 100 3.0 0.0 0.00 0.00 0.00 68 1015.0
20260510054407 58 100 3.0 0.0 0.00 0.00 0.00 66 1016.0
20260510054306 58 100 3.0 0.0 0.00 0.00 0.00 66 1016.0
20260510053406 58 100 3.0 0.0 0.00 0.00 0.00 66 1016.0
20260510053306 58 100 3.0 0.0 0.00 0.00 0.00 66 1016.0
20260510052406 58 100 3.0 0.0 0.00 0.00 0.00 66 1015.0
20260510052306 58 100 3.0 0.0 0.00 0.00 0.00 66 1015.0
20260510051405 58 270 1.0 0.0 0.00 0.00 0.00 67 1015.0
20260510051305 58 270 1.0 0.0 0.00 0.00 0.00 67 1015.0
20260510050404 58 270 2.0 0.0 0.00 0.00 0.00 66 1016.0
20260510050304 58 270 2.0 0.0 0.00 0.00 0.00 66 1016.0
20260510045404 58 270 2.0 0.0 0.00 0.00 0.00 67 1016.0
20260510045306 58 270 2.0 0.0 0.00 0.00 0.00 67 1016.0
20260510044403 58 270 2.0 0.0 0.00 0.00 0.00 67 1016.0
20260510044303 58 270 2.0 0.0 0.00 0.00 0.00 67 1016.0
20260510043403 59 270 2.0 0.0 0.00 0.00 0.00 66 1015.0
20260510043303 59 270 2.0 0.0 0.00 0.00 0.00 66 1015.0
20260510042402 59 180 1.0 1.0 0.00 0.00 0.00 68 1015.0
20260510042305 59 180 1.0 1.0 0.00 0.00 0.00 68 1015.0
20260510041401 59 180 1.0 1.0 0.00 0.00 0.00 63 1015.0
20260510041301 59 180 1.0 1.0 0.00 0.00 0.00 63 1015.0
20260510040301 59 100 2.0 0.0 0.00 0.00 0.00 63 1015.0
20260510035400 59 100 2.0 0.0 0.00 0.00 0.00 63 1016.0
20260510035300 59 100 2.0 0.0 0.00 0.00 0.00 63 1016.0
20260510034400 59 100 2.0 0.0 0.00 0.00 0.00 63 1015.0
20260510034259 59 100 2.0 0.0 0.00 0.00 0.00 63 1015.0
20260510033359 60 100 2.0 0.0 0.00 0.00 0.00 62 1015.0
20260510033259 60 100 2.0 0.0 0.00 0.00 0.00 62 1015.0
20260510032358 60 100 2.0 0.0 0.00 0.00 0.00 63 1015.0
20260510032258 60 100 2.0 0.0 0.00 0.00 0.00 63 1015.0
20260510031358 60 270 4.0 0.0 0.00 0.00 0.00 63 1015.0
20260510031257 60 270 4.0 0.0 0.00 0.00 0.00 63 1015.0
20260510030357 60 270 4.0 0.0 0.00 0.00 0.00 62 1016.0
20260510030257 60 270 4.0 0.0 0.00 0.00 0.00 62 1016.0
20260510025357 61 270 4.0 0.0 0.00 0.00 0.00 62 1016.0
20260510025256 61 270 4.0 0.0 0.00 0.00 0.00 62 1016.0
20260510024356 60 270 4.0 0.0 0.00 0.00 0.00 62 1016.0
20260510024256 60 270 4.0 0.0 0.00 0.00 0.00 62 1016.0
20260510023355 60 270 4.0 0.0 0.00 0.00 0.00 62 1016.0
20260510023255 60 270 4.0 0.0 0.00 0.00 0.00 62 1016.0
20260510022355 65 263 2.0 1.0 0.00 0.00 0.00 60 1016.0
20260510022255 65 263 2.0 1.0 0.00 0.00 0.00 60 1016.0
20260510021354 63 260 4.0 0.0 0.00 0.00 0.00 59 1016.0
20260510021254 63 260 4.0 0.0 0.00 0.00 0.00 59 1016.0
20260510020353 62 260 4.0 0.0 0.00 0.00 0.00 59 1016.0
20260510020253 62 260 4.0 0.0 0.00 0.00 0.00 59 1016.0
20260510015353 62 260 4.0 0.0 0.00 0.00 0.00 59 1016.0
20260510015252 62 260 4.0 0.0 0.00 0.00 0.00 59 1016.0
20260510014352 63 260 4.0 0.0 0.00 0.00 0.00 61 1016.0
20260510014252 63 260 4.0 0.0 0.00 0.00 0.00 61 1016.0
20260510013352 63 260 4.0 0.0 0.00 0.00 0.00 61 1016.0
20260510013251 63 260 4.0 0.0 0.00 0.00 0.00 61 1016.0
20260510012351 65 260 4.0 0.0 0.00 0.00 0.00 58 1016.0
20260510012251 65 260 4.0 0.0 0.00 0.00 0.00 58 1016.0
20260510011350 65 260 4.0 0.0 0.00 0.00 0.00 56 1017.0
20260510011250 65 260 4.0 0.0 0.00 0.00 0.00 56 1017.0
20260510010350 65 260 4.0 0.0 0.00 0.00 0.00 53 1017.0
20260510010250 65 260 4.0 0.0 0.00 0.00 0.00 53 1017.0
20260510005349 65 260 4.0 0.0 0.00 0.00 0.00 53 1017.0
20260510005249 65 260 4.0 0.0 0.00 0.00 0.00 53 1017.0
20260510004348 65 260 4.0 0.0 0.00 0.00 0.00 55 1017.0
20260510004248 65 260 4.0 0.0 0.00 0.00 0.00 55 1017.0
20260510003348 65 260 4.0 0.0 0.00 0.00 0.00 55 1017.0
20260510003248 65 260 4.0 0.0 0.00 0.00 0.00 55 1017.0
20260510002347 65 260 4.0 0.0 0.00 0.00 0.00 54 1017.0
20260510002247 65 260 4.0 0.0 0.00 0.00 0.00 54 1017.0
20260510001347 65 260 4.0 0.0 0.00 0.00 0.00 52 1017.0
20260510001246 65 260 4.0 0.0 0.00 0.00 0.00 52 1017.0
20260510000348 65 240 4.0 0.0 0.00 0.00 0.00 51 1018.0
20260510000248 65 240 4.0 0.0 0.00 0.00 0.00 51 1018.0
20260509235346 65 240 4.0 0.0 0.00 0.00 0.00 52 1018.0
20260509235245 65 240 4.0 0.0 0.00 0.00 0.00 52 1018.0
20260509234345 65 240 4.0 0.0 0.00 0.00 0.00 51 1018.0
20260509234245 65 240 4.0 0.0 0.00 0.00 0.00 51 1018.0
20260509233344 66 240 4.0 0.0 0.00 0.00 0.00 53 1018.0
20260509233244 66 240 4.0 0.0 0.00 0.00 0.00 53 1018.0
20260509232343 65 240 4.0 0.0 0.00 0.00 0.00 53 1018.0
20260509232243 65 240 4.0 0.0 0.00 0.00 0.00 53 1018.0
20260509231343 67 238 2.0 1.0 0.00 0.00 0.00 60 1018.0
20260509231243 67 238 2.0 1.0 0.00 0.00 0.00 60 1018.0
20260509230342 67 238 2.0 1.0 0.00 0.00 0.00 60 1018.0
20260509230242 67 238 2.0 1.0 0.00 0.00 0.00 60 1018.0
20260509225342 67 238 2.0 1.0 0.00 0.00 0.00 56 1018.0
20260509225242 67 238 2.0 1.0 0.00 0.00 0.00 56 1018.0
20260509224341 68 238 2.0 1.0 0.00 0.00 0.00 54 1019.0
20260509224241 68 238 2.0 1.0 0.00 0.00 0.00 54 1019.0
20260509223341 67 256 2.0 1.0 0.00 0.00 0.00 56 1019.0
20260509223240 67 256 2.0 1.0 0.00 0.00 0.00 56 1019.0
20260509222340 67 256 2.0 1.0 0.00 0.00 0.00 55 1019.0
20260509222240 67 256 2.0 1.0 0.00 0.00 0.00 55 1019.0
20260509221340 67 256 2.0 1.0 0.00 0.00 0.00 55 1019.0
20260509221239 67 256 2.0 1.0 0.00 0.00 0.00 55 1019.0
20260509220339 68 256 2.0 1.0 0.00 0.00 0.00 54 1019.0
20260509220239 68 256 2.0 1.0 0.00 0.00 0.00 54 1019.0
20260509215338 68 256 2.0 1.0 0.00 0.00 0.00 59 1019.0
20260509215238 68 256 2.0 1.0 0.00 0.00 0.00 59 1019.0
20260509214338 66 256 2.0 1.0 0.00 0.00 0.00 59 1019.0
20260509214238 66 256 2.0 1.0 0.00 0.00 0.00 59 1019.0
20260509213337 67 246 5.0 3.0 0.00 0.00 0.00 57 1020.0
20260509213237 67 246 5.0 3.0 0.00 0.00 0.00 57 1020.0
20260509212337 63 230 9.0 0.0 0.00 0.00 0.00 67 1020.0
20260509212237 63 230 9.0 0.0 0.00 0.00 0.00 67 1020.0
20260509211336 65 246 5.0 3.0 0.00 0.00 0.00 61 1020.0
20260509211236 65 246 5.0 3.0 0.00 0.00 0.00 61 1020.0
20260509210335 62 260 8.0 0.0 0.00 0.00 0.00 70 1020.0
20260509210235 62 260 8.0 0.0 0.00 0.00 0.00 70 1020.0
20260509205335 62 260 8.0 0.0 0.00 0.00 0.00 71 1020.0
20260509205235 62 260 8.0 0.0 0.00 0.00 0.00 71 1020.0